Location: Neuvy Saint Sepulchre
(46.5953°N, 1.8122°E)
Time: 13:33:22
(UTC+02:00)

ISS - Pass Details

Date: 26 September 2022
Orbit: 414 x 417 km, 51.6° (Epoch: 01 October)

Event Time Altitude Azimuth Distance (km) Brightness Sun altitude
Rises 21:18:21 0° 293° (WNW) 2,363 1.8 -17.1°
Reaches altitude 10° 21:20:32 10° 301° (WNW) 1,499 0.2 -17.4°
Maximum altitude 21:23:44 40° 12° (NNE) 635 -2.9 -18.0°
Enters shadow 21:24:22 35° 42° (NE) 690 -2.9 -18.1°
